Year,Month,Day,Hour,Minute,Value (Times are PST for temperature in C)
2010,08,21,00,00,10.90
2010,08,21,00,01,10.90
2010,08,21,00,02,10.90
2010,08,21,00,03,10.90
2010,08,21,00,04,10.90
2010,08,21,00,05,10.90
2010,08,21,00,06,10.90
2010,08,21,00,07,10.90
2010,08,21,00,08,10.90
2010,08,21,00,09,10.90
2010,08,21,00,10,10.90
2010,08,21,00,11,10.90
2010,08,21,00,12,10.80
2010,08,21,00,13,10.80
2010,08,21,00,14,10.80
2010,08,21,00,15,10.80
2010,08,21,00,16,10.80
2010,08,21,00,17,10.80
2010,08,21,00,18,10.80
2010,08,21,00,19,10.80
2010,08,21,00,20,10.80
2010,08,21,00,21,10.70
2010,08,21,00,22,10.70
2010,08,21,00,23,10.70
2010,08,21,00,24,10.70
2010,08,21,00,25,10.70
2010,08,21,00,26,10.70
2010,08,21,00,27,10.70
2010,08,21,00,28,10.70
2010,08,21,00,29,10.70
2010,08,21,00,30,10.70
2010,08,21,00,31,10.70
2010,08,21,00,32,10.60
2010,08,21,00,33,10.60
2010,08,21,00,34,10.60
2010,08,21,00,35,10.60
2010,08,21,00,36,10.60
2010,08,21,00,37,10.60
2010,08,21,00,38,10.70
2010,08,21,00,39,10.70
2010,08,21,00,40,10.70
2010,08,21,00,41,10.70
2010,08,21,00,42,10.70
2010,08,21,00,43,10.70
2010,08,21,00,44,10.70
2010,08,21,00,45,10.70
2010,08,21,00,46,10.70
2010,08,21,00,47,10.70
2010,08,21,00,48,10.60
2010,08,21,00,49,10.60
2010,08,21,00,50,10.60
2010,08,21,00,51,10.60
2010,08,21,00,52,10.60
2010,08,21,00,53,10.60
2010,08,21,00,54,10.60
2010,08,21,00,55,10.60
2010,08,21,00,56,10.60
2010,08,21,00,57,10.60
2010,08,21,00,58,10.60
2010,08,21,00,59,10.50
2010,08,21,01,00,10.40
2010,08,21,01,01,10.40
2010,08,21,01,02,10.40
2010,08,21,01,03,10.40
2010,08,21,01,04,10.40
2010,08,21,01,05,10.40
2010,08,21,01,06,10.40
2010,08,21,01,07,10.40
2010,08,21,01,08,10.40
2010,08,21,01,09,10.40
2010,08,21,01,10,10.40
2010,08,21,01,11,10.40
2010,08,21,01,12,10.40
2010,08,21,01,13,10.40
2010,08,21,01,14,10.40
2010,08,21,01,15,10.40
2010,08,21,01,16,10.40
2010,08,21,01,17,10.40
2010,08,21,01,18,10.40
2010,08,21,01,19,10.40
2010,08,21,01,20,10.40
2010,08,21,01,21,10.40
2010,08,21,01,22,10.40
2010,08,21,01,23,10.40
2010,08,21,01,24,10.40
2010,08,21,01,25,10.40
2010,08,21,01,26,10.40
2010,08,21,01,27,10.40
2010,08,21,01,28,10.40
2010,08,21,01,29,10.40
2010,08,21,01,30,10.50
2010,08,21,01,31,10.50
2010,08,21,01,32,10.60
2010,08,21,01,33,10.60
2010,08,21,01,34,10.60
2010,08,21,01,35,10.60
2010,08,21,01,36,10.60
2010,08,21,01,37,10.60
2010,08,21,01,38,10.60
2010,08,21,01,39,10.60
2010,08,21,01,40,10.60
2010,08,21,01,41,10.60
2010,08,21,01,42,10.50
2010,08,21,01,43,10.40
2010,08,21,01,44,10.50
2010,08,21,01,45,10.60
2010,08,21,01,46,10.60
2010,08,21,01,47,10.60
2010,08,21,01,48,10.60
2010,08,21,01,49,10.60
2010,08,21,01,50,10.60
2010,08,21,01,51,10.60
2010,08,21,01,52,10.60
2010,08,21,01,53,10.60
2010,08,21,01,54,10.70
2010,08,21,01,55,10.70
2010,08,21,01,56,10.80
2010,08,21,01,57,10.80
2010,08,21,01,58,10.80
2010,08,21,01,59,10.80
2010,08,21,02,00,10.80
2010,08,21,02,01,10.80
2010,08,21,02,02,10.80
2010,08,21,02,03,10.80
2010,08,21,02,04,10.90
2010,08,21,02,05,10.90
2010,08,21,02,06,10.90
2010,08,21,02,07,10.90
2010,08,21,02,08,10.90
2010,08,21,02,09,10.90
2010,08,21,02,10,10.80
2010,08,21,02,11,10.90
2010,08,21,02,12,10.90
2010,08,21,02,13,10.90
2010,08,21,02,14,10.80
2010,08,21,02,15,10.80
2010,08,21,02,16,10.80
2010,08,21,02,17,10.80
2010,08,21,02,18,10.80
2010,08,21,02,19,10.80
2010,08,21,02,20,10.80
2010,08,21,02,21,10.80
2010,08,21,02,22,10.70
2010,08,21,02,23,10.70
2010,08,21,02,24,10.70
2010,08,21,02,25,10.70
2010,08,21,02,26,10.70
2010,08,21,02,27,10.70
2010,08,21,02,28,10.70
2010,08,21,02,29,10.70
2010,08,21,02,30,10.60
2010,08,21,02,31,10.60
2010,08,21,02,32,10.60
2010,08,21,02,33,10.60
2010,08,21,02,34,10.60
2010,08,21,02,35,10.60
2010,08,21,02,36,10.60
2010,08,21,02,37,10.60
2010,08,21,02,38,10.60
2010,08,21,02,39,10.60
2010,08,21,02,40,10.60
2010,08,21,02,41,10.60
2010,08,21,02,42,10.60
2010,08,21,02,43,10.60
2010,08,21,02,44,10.50
2010,08,21,02,45,10.40
2010,08,21,02,46,10.40
2010,08,21,02,47,10.40
2010,08,21,02,48,10.40
2010,08,21,02,49,10.30
2010,08,21,02,50,10.30
2010,08,21,02,51,10.30
2010,08,21,02,52,10.20
2010,08,21,02,53,10.20
2010,08,21,02,54,10.20
2010,08,21,02,55,10.20
2010,08,21,02,56,10.20
2010,08,21,02,57,10.10
2010,08,21,02,58,10.10
2010,08,21,02,59,10.10
2010,08,21,03,00,10.10
2010,08,21,03,01,10.10
2010,08,21,03,02,10.10
2010,08,21,03,03,10.10
2010,08,21,03,04,10.10
2010,08,21,03,05,10.10
2010,08,21,03,06,10.00
2010,08,21,03,07,9.90
2010,08,21,03,08,9.90
2010,08,21,03,09,9.90
2010,08,21,03,10,9.90
2010,08,21,03,11,9.90
2010,08,21,03,12,9.90
2010,08,21,03,13,9.90
2010,08,21,03,14,9.80
2010,08,21,03,15,9.80
2010,08,21,03,16,9.80
2010,08,21,03,17,9.80
2010,08,21,03,18,9.70
2010,08,21,03,19,9.70
2010,08,21,03,20,9.70
2010,08,21,03,21,9.70
2010,08,21,03,22,9.70
2010,08,21,03,23,9.70
2010,08,21,03,24,9.70
2010,08,21,03,25,9.70
2010,08,21,03,26,9.70
2010,08,21,03,27,9.60
2010,08,21,03,28,9.60
2010,08,21,03,29,9.60
2010,08,21,03,30,9.60
2010,08,21,03,31,9.60
2010,08,21,03,32,9.60
2010,08,21,03,33,9.60
2010,08,21,03,34,9.60
2010,08,21,03,35,9.60
2010,08,21,03,36,9.60
2010,08,21,03,37,9.60
2010,08,21,03,38,9.60
2010,08,21,03,39,9.60
2010,08,21,03,40,9.60
2010,08,21,03,41,9.60
2010,08,21,03,42,9.60
2010,08,21,03,43,9.60
2010,08,21,03,44,9.60
2010,08,21,03,45,9.60
2010,08,21,03,46,9.60
2010,08,21,03,47,9.50
2010,08,21,03,48,9.50
2010,08,21,03,49,9.50
2010,08,21,03,50,9.50
2010,08,21,03,51,9.50
2010,08,21,03,52,9.40
2010,08,21,03,53,9.40
2010,08,21,03,54,9.40
2010,08,21,03,55,9.40
2010,08,21,03,56,9.40
2010,08,21,03,57,9.40
2010,08,21,03,58,9.40
2010,08,21,03,59,9.30
2010,08,21,04,00,9.30
2010,08,21,04,01,9.30
2010,08,21,04,02,9.30
2010,08,21,04,03,9.30
2010,08,21,04,04,9.30
2010,08,21,04,05,9.20
2010,08,21,04,06,9.20
2010,08,21,04,07,9.20
2010,08,21,04,08,9.20
2010,08,21,04,09,9.20
2010,08,21,04,10,9.20
2010,08,21,04,11,9.20
2010,08,21,04,12,9.20
2010,08,21,04,13,9.20
2010,08,21,04,14,9.20
2010,08,21,04,15,9.20
2010,08,21,04,16,9.20
2010,08,21,04,17,9.20
2010,08,21,04,18,9.20
2010,08,21,04,19,9.20
2010,08,21,04,20,9.20
2010,08,21,04,21,9.20
2010,08,21,04,22,9.20
2010,08,21,04,23,9.20
2010,08,21,04,24,9.20
2010,08,21,04,25,9.20
2010,08,21,04,26,9.20
2010,08,21,04,27,9.10
2010,08,21,04,28,9.10
2010,08,21,04,29,9.10
2010,08,21,04,30,9.10
2010,08,21,04,31,9.10
2010,08,21,04,32,9.10
2010,08,21,04,33,9.00
2010,08,21,04,34,9.00
2010,08,21,04,35,9.00
2010,08,21,04,36,9.00
2010,08,21,04,37,8.90
2010,08,21,04,38,8.90
2010,08,21,04,39,8.90
2010,08,21,04,40,8.90
2010,08,21,04,41,8.80
2010,08,21,04,42,8.80
2010,08,21,04,43,8.80
2010,08,21,04,44,8.80
2010,08,21,04,45,8.80
2010,08,21,04,46,8.80
2010,08,21,04,47,8.80
2010,08,21,04,48,8.80
2010,08,21,04,49,8.80
2010,08,21,04,50,8.80
2010,08,21,04,51,8.80
2010,08,21,04,52,8.80
2010,08,21,04,53,8.80
2010,08,21,04,54,8.80
2010,08,21,04,55,8.80
2010,08,21,04,56,8.80
2010,08,21,04,57,8.70
2010,08,21,04,58,8.70
2010,08,21,04,59,8.80
2010,08,21,05,00,8.80
2010,08,21,05,01,8.70
2010,08,21,05,02,8.70
2010,08,21,05,03,8.70
2010,08,21,05,04,8.70
2010,08,21,05,05,8.70
2010,08,21,05,06,8.70
2010,08,21,05,07,8.70
2010,08,21,05,08,8.70
2010,08,21,05,09,8.70
2010,08,21,05,10,8.70
2010,08,21,05,11,8.70
2010,08,21,05,12,8.70
2010,08,21,05,13,8.70
2010,08,21,05,14,8.70
2010,08,21,05,15,8.70
2010,08,21,05,16,8.70
2010,08,21,05,17,8.60
2010,08,21,05,18,8.60
2010,08,21,05,19,8.60
2010,08,21,05,20,8.60
2010,08,21,05,21,8.60
2010,08,21,05,22,8.60
2010,08,21,05,23,8.60
2010,08,21,05,24,8.60
2010,08,21,05,25,8.60
2010,08,21,05,26,8.50
2010,08,21,05,27,8.50
2010,08,21,05,28,8.50
2010,08,21,05,29,8.50
2010,08,21,05,30,8.50
2010,08,21,05,31,8.50
2010,08,21,05,32,8.50
2010,08,21,05,33,8.50
2010,08,21,05,34,8.50
2010,08,21,05,35,8.50
2010,08,21,05,36,8.50
2010,08,21,05,37,8.50
2010,08,21,05,38,8.50
2010,08,21,05,39,8.50
2010,08,21,05,40,8.50
2010,08,21,05,41,8.50
2010,08,21,05,42,8.40
2010,08,21,05,43,8.40
2010,08,21,05,44,8.40
2010,08,21,05,45,8.40
2010,08,21,05,46,8.50
2010,08,21,05,47,8.50
2010,08,21,05,48,8.50
2010,08,21,05,49,8.50
2010,08,21,05,50,8.50
2010,08,21,05,51,8.50
2010,08,21,05,52,8.50
2010,08,21,05,53,8.50
2010,08,21,05,54,8.50
2010,08,21,05,55,8.50
2010,08,21,05,56,8.50
2010,08,21,05,57,8.50
2010,08,21,05,58,8.50
2010,08,21,05,59,8.50
2010,08,21,06,00,8.50
2010,08,21,06,01,8.50
2010,08,21,06,02,8.40
2010,08,21,06,03,8.40
2010,08,21,06,04,8.40
2010,08,21,06,05,8.40
2010,08,21,06,06,8.40
2010,08,21,06,07,8.40
2010,08,21,06,08,8.40
2010,08,21,06,09,8.40
2010,08,21,06,10,8.30
2010,08,21,06,11,8.30
2010,08,21,06,12,8.30
2010,08,21,06,13,8.30
2010,08,21,06,14,8.30
2010,08,21,06,15,8.30
2010,08,21,06,16,8.30
2010,08,21,06,17,8.30
2010,08,21,06,18,8.30
2010,08,21,06,19,8.30
2010,08,21,06,20,8.30
2010,08,21,06,21,8.30
2010,08,21,06,22,8.30
2010,08,21,06,23,8.30
2010,08,21,06,24,8.30
2010,08,21,06,25,8.30
2010,08,21,06,26,8.30
2010,08,21,06,27,8.30
2010,08,21,06,28,8.30
2010,08,21,06,29,8.30
2010,08,21,06,30,8.30
2010,08,21,06,31,8.30
2010,08,21,06,32,8.30
2010,08,21,06,33,8.30
2010,08,21,06,34,8.30
2010,08,21,06,35,8.30
2010,08,21,06,36,8.30
2010,08,21,06,37,8.30
2010,08,21,06,38,8.30
2010,08,21,06,39,8.30
2010,08,21,06,40,8.30
2010,08,21,06,41,8.40
2010,08,21,06,42,8.40
2010,08,21,06,43,8.40
2010,08,21,06,44,8.40
2010,08,21,06,45,8.40
2010,08,21,06,46,8.40
2010,08,21,06,47,8.40
2010,08,21,06,48,8.40
2010,08,21,06,49,8.40
2010,08,21,06,50,8.40
2010,08,21,06,51,8.40
2010,08,21,06,52,8.40
2010,08,21,06,53,8.50
2010,08,21,06,54,8.50
2010,08,21,06,55,8.50
2010,08,21,06,56,8.50
2010,08,21,06,57,8.50
2010,08,21,06,58,8.50
2010,08,21,06,59,8.50
2010,08,21,07,00,8.60
2010,08,21,07,01,8.60
2010,08,21,07,02,8.60
2010,08,21,07,03,8.60
2010,08,21,07,04,8.60
2010,08,21,07,05,8.60
2010,08,21,07,06,8.60
2010,08,21,07,07,8.60
2010,08,21,07,08,8.60
2010,08,21,07,09,8.70
2010,08,21,07,10,8.70
2010,08,21,07,11,8.70
2010,08,21,07,12,8.70
2010,08,21,07,13,8.70
2010,08,21,07,14,8.70
2010,08,21,07,15,8.70
2010,08,21,07,16,8.70
2010,08,21,07,17,8.70
2010,08,21,07,18,8.70
2010,08,21,07,19,8.70
2010,08,21,07,20,8.70
2010,08,21,07,21,8.70
2010,08,21,07,22,8.70
2010,08,21,07,23,8.80
2010,08,21,07,24,8.80
2010,08,21,07,25,8.80
2010,08,21,07,26,8.80
2010,08,21,07,27,8.80
2010,08,21,07,28,8.90
2010,08,21,07,29,8.90
2010,08,21,07,30,8.90
2010,08,21,07,31,8.90
2010,08,21,07,32,9.00
2010,08,21,07,33,9.00
2010,08,21,07,34,9.00
2010,08,21,07,35,9.00
2010,08,21,07,36,9.10
2010,08,21,07,37,9.10
2010,08,21,07,38,9.10
2010,08,21,07,39,9.20
2010,08,21,07,40,9.20
2010,08,21,07,41,9.20
2010,08,21,07,42,9.20
2010,08,21,07,43,9.20
2010,08,21,07,44,9.30
2010,08,21,07,45,9.30
2010,08,21,07,46,9.40
2010,08,21,07,47,9.40
2010,08,21,07,48,9.50
2010,08,21,07,49,9.50
2010,08,21,07,50,9.50
2010,08,21,07,51,9.60
2010,08,21,07,52,9.60
2010,08,21,07,53,9.70
2010,08,21,07,54,9.70
2010,08,21,07,55,9.70
2010,08,21,07,56,9.80
2010,08,21,07,57,9.80
2010,08,21,07,58,9.90
2010,08,21,07,59,9.90
2010,08,21,08,00,9.90
2010,08,21,08,01,10.10
2010,08,21,08,02,10.10
2010,08,21,08,03,10.10
2010,08,21,08,04,10.20
2010,08,21,08,05,10.20
2010,08,21,08,06,10.20
2010,08,21,08,07,10.30
2010,08,21,08,08,10.30
2010,08,21,08,09,10.30
2010,08,21,08,10,10.40
2010,08,21,08,11,10.40
2010,08,21,08,12,10.40
2010,08,21,08,13,10.50
2010,08,21,08,14,10.60
2010,08,21,08,15,10.60
2010,08,21,08,16,10.60
2010,08,21,08,17,10.60
2010,08,21,08,18,10.70
2010,08,21,08,19,10.70
2010,08,21,08,20,10.80
2010,08,21,08,21,10.90
2010,08,21,08,22,10.90
2010,08,21,08,23,11.00
2010,08,21,08,24,11.10
2010,08,21,08,25,11.20
2010,08,21,08,26,11.30
2010,08,21,08,27,11.40
2010,08,21,08,28,11.60
2010,08,21,08,29,11.80
2010,08,21,08,30,11.90
2010,08,21,08,31,12.10
2010,08,21,08,32,12.40
2010,08,21,08,33,12.60
2010,08,21,08,34,12.80
2010,08,21,08,35,13.00
2010,08,21,08,36,13.10
2010,08,21,08,37,13.30
2010,08,21,08,38,13.40
2010,08,21,08,39,13.60
2010,08,21,08,40,13.70
2010,08,21,08,41,13.80
2010,08,21,08,42,13.90
2010,08,21,08,43,14.00
2010,08,21,08,44,14.10
2010,08,21,08,45,14.20
2010,08,21,08,46,14.40
2010,08,21,08,47,14.50
2010,08,21,08,48,14.60
2010,08,21,08,49,14.70
2010,08,21,08,50,14.80
2010,08,21,08,51,15.00
2010,08,21,08,52,15.00
2010,08,21,08,53,15.10
2010,08,21,08,54,15.10
2010,08,21,08,55,15.20
2010,08,21,08,56,15.20
2010,08,21,08,57,15.30
2010,08,21,08,58,15.30
2010,08,21,08,59,15.30
2010,08,21,09,00,15.30
2010,08,21,09,01,15.30
2010,08,21,09,02,15.40
2010,08,21,09,03,15.50
2010,08,21,09,04,15.50
2010,08,21,09,05,15.60
2010,08,21,09,06,15.60
2010,08,21,09,07,15.70
2010,08,21,09,08,15.70
2010,08,21,09,09,15.80
2010,08,21,09,10,15.80
2010,08,21,09,11,15.90
2010,08,21,09,12,16.00
2010,08,21,09,13,16.10
2010,08,21,09,14,16.10
2010,08,21,09,15,16.20
2010,08,21,09,16,16.30
2010,08,21,09,17,16.40
2010,08,21,09,18,16.40
2010,08,21,09,19,16.40
2010,08,21,09,20,16.40
2010,08,21,09,21,16.40
2010,08,21,09,22,16.40
2010,08,21,09,23,16.40
2010,08,21,09,24,16.40
2010,08,21,09,25,16.40
2010,08,21,09,26,16.50
2010,08,21,09,27,16.60
2010,08,21,09,28,16.60
2010,08,21,09,29,16.60
2010,08,21,09,30,16.60
2010,08,21,09,31,16.60
2010,08,21,09,32,16.60
2010,08,21,09,33,16.70
2010,08,21,09,34,16.70
2010,08,21,09,35,16.70
2010,08,21,09,36,16.70
2010,08,21,09,37,16.80
2010,08,21,09,38,16.90
2010,08,21,09,39,16.90
2010,08,21,09,40,17.00
2010,08,21,09,41,17.00
2010,08,21,09,42,17.10
2010,08,21,09,43,17.20
2010,08,21,09,44,17.20
2010,08,21,09,45,17.20
2010,08,21,09,46,17.30
2010,08,21,09,47,17.30
2010,08,21,09,48,17.30
2010,08,21,09,49,17.40
2010,08,21,09,50,17.50
2010,08,21,09,51,17.50
2010,08,21,09,52,17.60
2010,08,21,09,53,17.60
2010,08,21,09,54,17.60
2010,08,21,09,55,17.60
2010,08,21,09,56,17.70
2010,08,21,09,57,17.60
2010,08,21,09,58,17.50
2010,08,21,09,59,17.50
2010,08,21,10,00,17.50
2010,08,21,10,01,17.60
2010,08,21,10,02,17.60
2010,08,21,10,03,17.60
2010,08,21,10,04,17.50
2010,08,21,10,05,17.50
2010,08,21,10,06,17.60
2010,08,21,10,07,17.70
2010,08,21,10,08,17.70
2010,08,21,10,09,17.80
2010,08,21,10,10,17.90
2010,08,21,10,11,17.90
2010,08,21,10,12,17.90
2010,08,21,10,13,17.90
2010,08,21,10,14,18.00
2010,08,21,10,15,18.10
2010,08,21,10,16,18.20
2010,08,21,10,17,18.20
2010,08,21,10,18,18.20
2010,08,21,10,19,18.20
2010,08,21,10,20,18.10
2010,08,21,10,21,18.10
2010,08,21,10,22,18.10
2010,08,21,10,23,18.10
2010,08,21,10,24,18.10
2010,08,21,10,25,18.10
2010,08,21,10,26,18.10
2010,08,21,10,27,18.20
2010,08,21,10,28,18.20
2010,08,21,10,29,18.20
2010,08,21,10,30,18.30
2010,08,21,10,31,18.40
2010,08,21,10,32,18.50
2010,08,21,10,33,18.50
2010,08,21,10,34,18.60
2010,08,21,10,35,18.60
2010,08,21,10,36,18.60
2010,08,21,10,37,18.60
2010,08,21,10,38,18.70
2010,08,21,10,39,18.70
2010,08,21,10,40,18.70
2010,08,21,10,41,18.80
2010,08,21,10,42,18.90
2010,08,21,10,43,18.90
2010,08,21,10,44,18.90
2010,08,21,10,45,18.90
2010,08,21,10,46,18.90
2010,08,21,10,47,19.00
2010,08,21,10,48,19.10
2010,08,21,10,49,19.10
2010,08,21,10,50,19.20
2010,08,21,10,51,19.30
2010,08,21,10,52,19.30
2010,08,21,10,53,19.30
2010,08,21,10,54,19.30
2010,08,21,10,55,19.30
2010,08,21,10,56,19.30
2010,08,21,10,57,19.30
2010,08,21,10,58,19.20
2010,08,21,10,59,19.20
2010,08,21,11,00,19.10
2010,08,21,11,01,19.20
2010,08,21,11,02,19.10
2010,08,21,11,03,19.10
2010,08,21,11,04,19.10
2010,08,21,11,05,19.20
2010,08,21,11,06,19.30
2010,08,21,11,07,19.20
2010,08,21,11,08,19.10
2010,08,21,11,09,19.10
2010,08,21,11,10,19.10
2010,08,21,11,11,19.10
2010,08,21,11,12,19.20
2010,08,21,11,13,19.30
2010,08,21,11,14,19.40
2010,08,21,11,15,19.50
2010,08,21,11,16,19.50
2010,08,21,11,17,19.50
2010,08,21,11,18,19.60
2010,08,21,11,19,19.60
2010,08,21,11,20,19.70
2010,08,21,11,21,19.70
2010,08,21,11,22,19.90
2010,08,21,11,23,19.90
2010,08,21,11,24,19.90
2010,08,21,11,25,19.90
2010,08,21,11,26,19.90
2010,08,21,11,27,19.90
2010,08,21,11,28,19.90
2010,08,21,11,29,19.90
2010,08,21,11,30,19.90
2010,08,21,11,31,19.90
2010,08,21,11,32,19.90
2010,08,21,11,33,19.90
2010,08,21,11,34,19.90
2010,08,21,11,35,19.90
2010,08,21,11,36,19.90
2010,08,21,11,37,19.90
2010,08,21,11,38,19.90
2010,08,21,11,39,19.90
2010,08,21,11,40,19.90
2010,08,21,11,41,19.90
2010,08,21,11,42,20.10
2010,08,21,11,43,20.10
2010,08,21,11,44,20.10
2010,08,21,11,45,20.10
2010,08,21,11,46,20.20
2010,08,21,11,47,20.20
2010,08,21,11,48,20.10
2010,08,21,11,49,20.10
2010,08,21,11,50,20.10
2010,08,21,11,51,19.90
2010,08,21,11,52,19.90
2010,08,21,11,53,19.90
2010,08,21,11,54,19.80
2010,08,21,11,55,19.80
2010,08,21,11,56,19.80
2010,08,21,11,57,19.90
2010,08,21,11,58,19.90
2010,08,21,11,59,19.90
2010,08,21,12,00,19.90
2010,08,21,12,01,19.90
2010,08,21,12,02,19.80
2010,08,21,12,03,19.90
2010,08,21,12,04,19.90
2010,08,21,12,05,19.90
2010,08,21,12,06,20.00
2010,08,21,12,07,20.10
2010,08,21,12,08,20.20
2010,08,21,12,09,20.20
2010,08,21,12,10,20.20
2010,08,21,12,11,20.20
2010,08,21,12,12,20.20
2010,08,21,12,13,20.20
2010,08,21,12,14,20.10
2010,08,21,12,15,20.10
2010,08,21,12,16,20.20
2010,08,21,12,17,20.20
2010,08,21,12,18,20.20
2010,08,21,12,19,20.20
2010,08,21,12,20,20.20
2010,08,21,12,21,20.10
2010,08,21,12,22,20.10
2010,08,21,12,23,20.10
2010,08,21,12,24,20.10
2010,08,21,12,25,20.20
2010,08,21,12,26,20.20
2010,08,21,12,27,20.20
2010,08,21,12,28,20.30
2010,08,21,12,29,20.30
2010,08,21,12,30,20.40
2010,08,21,12,31,20.50
2010,08,21,12,32,20.50
2010,08,21,12,33,20.60
2010,08,21,12,34,20.60
2010,08,21,12,35,20.50
2010,08,21,12,36,20.50
2010,08,21,12,37,20.60
2010,08,21,12,38,20.60
2010,08,21,12,39,20.60
2010,08,21,12,40,20.70
2010,08,21,12,41,20.70
2010,08,21,12,42,20.80
2010,08,21,12,43,20.90
2010,08,21,12,44,21.00
2010,08,21,12,45,21.10
2010,08,21,12,46,21.20
2010,08,21,12,47,21.30
2010,08,21,12,48,21.30
2010,08,21,12,49,21.30
2010,08,21,12,50,21.30
2010,08,21,12,51,21.30
2010,08,21,12,52,21.20
2010,08,21,12,53,21.20
2010,08,21,12,54,21.20
2010,08,21,12,55,21.20
2010,08,21,12,56,21.30
2010,08,21,12,57,21.30
2010,08,21,12,58,21.40
2010,08,21,12,59,21.40
2010,08,21,13,00,21.40
2010,08,21,13,01,21.30
2010,08,21,13,02,21.30
2010,08,21,13,03,21.20
2010,08,21,13,04,21.10
2010,08,21,13,05,21.10
2010,08,21,13,06,21.20
2010,08,21,13,07,21.20
2010,08,21,13,08,21.20
2010,08,21,13,09,21.10
2010,08,21,13,10,21.00
2010,08,21,13,11,21.00
2010,08,21,13,12,21.00
2010,08,21,13,13,21.10
2010,08,21,13,14,21.10
2010,08,21,13,15,21.20
2010,08,21,13,16,21.30
2010,08,21,13,17,21.30
2010,08,21,13,18,21.20
2010,08,21,13,19,21.20
2010,08,21,13,20,21.30
2010,08,21,13,21,21.30
2010,08,21,13,22,21.30
2010,08,21,13,23,21.30
2010,08,21,13,24,21.40
2010,08,21,13,25,21.40
2010,08,21,13,26,21.50
2010,08,21,13,27,21.60
2010,08,21,13,28,21.70
2010,08,21,13,29,21.80
2010,08,21,13,30,21.80
2010,08,21,13,31,21.90
2010,08,21,13,32,21.90
2010,08,21,13,33,22.00
2010,08,21,13,34,22.00
2010,08,21,13,35,22.00
2010,08,21,13,36,22.10
2010,08,21,13,37,22.10
2010,08,21,13,38,22.20
2010,08,21,13,39,22.20
2010,08,21,13,40,22.10
2010,08,21,13,41,22.10
2010,08,21,13,42,22.00
2010,08,21,13,43,22.00
2010,08,21,13,44,22.00
2010,08,21,13,45,22.00
2010,08,21,13,46,22.00
2010,08,21,13,47,22.00
2010,08,21,13,48,22.00
2010,08,21,13,49,22.00
2010,08,21,13,50,22.00
2010,08,21,13,51,22.00
2010,08,21,13,52,22.00
2010,08,21,13,53,22.10
2010,08,21,13,54,22.10
2010,08,21,13,55,22.20
2010,08,21,13,56,22.30
2010,08,21,13,57,22.30
2010,08,21,13,58,22.40
2010,08,21,13,59,22.50
2010,08,21,14,00,22.50
2010,08,21,14,01,22.60
2010,08,21,14,02,22.60
2010,08,21,14,03,22.70
2010,08,21,14,04,22.80
2010,08,21,14,05,22.80
2010,08,21,14,06,22.60
2010,08,21,14,07,22.60
2010,08,21,14,08,22.50
2010,08,21,14,09,22.40
2010,08,21,14,10,22.40
2010,08,21,14,11,22.40
2010,08,21,14,12,22.30
2010,08,21,14,13,22.20
2010,08,21,14,14,22.20
2010,08,21,14,15,22.20
2010,08,21,14,16,22.20
2010,08,21,14,17,22.20
2010,08,21,14,18,22.10
2010,08,21,14,19,22.10
2010,08,21,14,20,22.10
2010,08,21,14,21,22.10
2010,08,21,14,22,22.10
2010,08,21,14,23,22.20
2010,08,21,14,24,22.30
2010,08,21,14,25,22.30
2010,08,21,14,26,22.30
2010,08,21,14,27,22.20
2010,08,21,14,28,22.20
2010,08,21,14,29,22.10
2010,08,21,14,30,22.00
2010,08,21,14,31,22.10
2010,08,21,14,32,22.10
2010,08,21,14,33,22.20
2010,08,21,14,34,22.20
2010,08,21,14,35,22.30
2010,08,21,14,36,22.40
2010,08,21,14,37,22.50
2010,08,21,14,38,22.50
2010,08,21,14,39,22.40
2010,08,21,14,40,22.40
2010,08,21,14,41,22.40
2010,08,21,14,42,22.50
2010,08,21,14,43,22.50
2010,08,21,14,44,22.60
2010,08,21,14,45,22.60
2010,08,21,14,46,22.60
2010,08,21,14,47,22.70
2010,08,21,14,48,22.60
2010,08,21,14,49,22.50
2010,08,21,14,50,22.50
2010,08,21,14,51,22.50
2010,08,21,14,52,22.50
2010,08,21,14,53,22.50
2010,08,21,14,54,22.60
2010,08,21,14,55,22.60
2010,08,21,14,56,22.70
2010,08,21,14,57,22.80
2010,08,21,14,58,22.80
2010,08,21,14,59,22.80
2010,08,21,15,00,22.80
2010,08,21,15,01,22.90
2010,08,21,15,02,22.90
2010,08,21,15,03,22.90
2010,08,21,15,04,22.90
2010,08,21,15,05,22.70
2010,08,21,15,06,22.70
2010,08,21,15,07,22.60
2010,08,21,15,08,22.50
2010,08,21,15,09,22.60
2010,08,21,15,10,22.60
2010,08,21,15,11,22.50
2010,08,21,15,12,22.50
2010,08,21,15,13,22.40
2010,08,21,15,14,22.40
2010,08,21,15,15,22.40
2010,08,21,15,16,22.40
2010,08,21,15,17,22.50
2010,08,21,15,18,22.40
2010,08,21,15,19,22.40
2010,08,21,15,20,22.40
2010,08,21,15,21,22.30
2010,08,21,15,22,22.30
2010,08,21,15,23,22.20
2010,08,21,15,24,22.10
2010,08,21,15,25,22.10
2010,08,21,15,26,22.10
2010,08,21,15,27,22.20
2010,08,21,15,28,22.20
2010,08,21,15,29,22.30
2010,08,21,15,30,22.30
2010,08,21,15,31,22.30
2010,08,21,15,32,22.30
2010,08,21,15,33,22.30
2010,08,21,15,34,22.40
2010,08,21,15,35,22.40
2010,08,21,15,36,22.50
2010,08,21,15,37,22.60
2010,08,21,15,38,22.60
2010,08,21,15,39,22.50
2010,08,21,15,40,22.50
2010,08,21,15,41,22.50
2010,08,21,15,42,22.60
2010,08,21,15,43,22.60
2010,08,21,15,44,22.60
2010,08,21,15,45,22.60
2010,08,21,15,46,22.60
2010,08,21,15,47,22.60
2010,08,21,15,48,22.60
2010,08,21,15,49,22.50
2010,08,21,15,50,22.40
2010,08,21,15,51,22.30
2010,08,21,15,52,22.30
2010,08,21,15,53,22.20
2010,08,21,15,54,22.10
2010,08,21,15,55,22.00
2010,08,21,15,56,21.90
2010,08,21,15,57,21.80
2010,08,21,15,58,21.70
2010,08,21,15,59,21.70
2010,08,21,16,00,21.70
2010,08,21,16,01,21.70
2010,08,21,16,02,21.70
2010,08,21,16,03,21.60
2010,08,21,16,04,21.60
2010,08,21,16,05,21.60
2010,08,21,16,06,21.60
2010,08,21,16,07,21.60
2010,08,21,16,08,21.60
2010,08,21,16,09,21.60
2010,08,21,16,10,21.60
2010,08,21,16,11,21.70
2010,08,21,16,12,21.70
2010,08,21,16,13,21.70
2010,08,21,16,14,21.70
2010,08,21,16,15,21.60
2010,08,21,16,16,21.60
2010,08,21,16,17,21.60
2010,08,21,16,18,21.60
2010,08,21,16,19,21.60
2010,08,21,16,20,21.60
2010,08,21,16,21,21.40
2010,08,21,16,22,21.40
2010,08,21,16,23,21.30
2010,08,21,16,24,21.30
2010,08,21,16,25,21.30
2010,08,21,16,26,21.30
2010,08,21,16,27,21.30
2010,08,21,16,28,21.30
2010,08,21,16,29,21.30
2010,08,21,16,30,21.20
2010,08,21,16,31,21.20
2010,08,21,16,32,21.10
2010,08,21,16,33,21.10
2010,08,21,16,34,21.10
2010,08,21,16,35,21.10
2010,08,21,16,36,21.10
2010,08,21,16,37,21.10
2010,08,21,16,38,21.00
2010,08,21,16,39,21.00
2010,08,21,16,40,21.00
2010,08,21,16,41,21.00
2010,08,21,16,42,21.00
2010,08,21,16,43,21.00
2010,08,21,16,44,21.00
2010,08,21,16,45,21.10
2010,08,21,16,46,21.10
2010,08,21,16,47,21.10
2010,08,21,16,48,21.20
2010,08,21,16,49,21.20
2010,08,21,16,50,21.30
2010,08,21,16,51,21.30
2010,08,21,16,52,21.30
2010,08,21,16,53,21.30
2010,08,21,16,54,21.30
2010,08,21,16,55,21.40
2010,08,21,16,56,21.50
2010,08,21,16,57,21.60
2010,08,21,16,58,21.60
2010,08,21,16,59,21.60
2010,08,21,17,00,21.60
2010,08,21,17,01,21.70
2010,08,21,17,02,21.70
2010,08,21,17,03,21.70
2010,08,21,17,04,21.70
2010,08,21,17,05,21.70
2010,08,21,17,06,21.70
2010,08,21,17,07,21.70
2010,08,21,17,08,21.70
2010,08,21,17,09,21.70
2010,08,21,17,10,21.70
2010,08,21,17,11,21.60
2010,08,21,17,12,21.60
2010,08,21,17,13,21.60
2010,08,21,17,14,21.50
2010,08,21,17,15,21.40
2010,08,21,17,16,21.40
2010,08,21,17,17,21.40
2010,08,21,17,18,21.30
2010,08,21,17,19,21.30
2010,08,21,17,20,21.30
2010,08,21,17,21,21.30
2010,08,21,17,22,21.30
2010,08,21,17,23,21.20
2010,08,21,17,24,21.20
2010,08,21,17,25,21.20
2010,08,21,17,26,21.10
2010,08,21,17,27,21.10
2010,08,21,17,28,21.10
2010,08,21,17,29,21.10
2010,08,21,17,30,21.00
2010,08,21,17,31,20.90
2010,08,21,17,32,20.90